KAGSKVUJ

Guest
Details From KAGS - Augusta Rgnl At Bush Fld
To KVUJ - Stanly Co
Flight Number -
Tags generated
Created
Modified
Stats Distance 152 nm / 282 km
Max Altitude 19,000 ft / 5,791 m
Waypoints 3
Social Downloads 0
Likes 0
Share VATSIM

Download

Looking for another format? Having issues loading an existing format? Contact us
Advertisement - Login to hide

Notes

Basic altitude profile: - Ascent Rate: 2500ft/min - Ascent Speed: 250kts - Cruise Altitude: 35000ft - Cruise Speed: 420kts - Descent Rate: 1500ft/min - Descent Speed: 250kts Options: - Use NATs: yes - Use PACOTS: yes - Use low airways: yes - Use high airways: yes

Route

KAGS WIDER KVUJ

ID Type Via Altitude Latitude Longitude Leg Dist Tot Dist Heading (true) Name
O KAGS APT - 0 ft / 0 m 33.36968˚ -81.96390˚ - 0 nm - Augusta Rgnl At Bush Fld
WIDER FIX - 19,000 ft / 5,791 m 34.15751˚ -81.27400˚ 58 nm 58 nm 36° / 36° -
O KVUJ APT - 0 ft / 0 m 35.41700˚ -80.15057˚ 93 nm 152 nm 36° / 37° Stanly Co

Altitude Profile

Advertisement - Login to hide

KAGS

Details ICAO KAGS (AGS)
Name Augusta Rgnl At Bush Fld
Region United States
Timezone America/New_York (UTC-4.0)
Stats Elevation 144 ft / 44 m (AMSL)
Location 33.369676° -81.963895°
Runways 2
Magnetic Variation 6.752° W

METAR

KAGS 241553Z 00000KT 10SM BKN012 BKN065 26/22 A3012 RMK AO2 SLP196 T02560217

Decode

TAF

TAF AMD KAGS 241541Z 2416/2512 VRB05KT P6SM BKN015 FM241700 13006KT P6SM VCSH BKN035 TEMPO 2419/2423 SHRA FM250500 00000KT P6SM OVC025 FM250900 06002KT 3SM BR OVC008

Decode

Departure Runways

ID Width Length Bearing (true) Bearing (mag) Surface Threshold Offset Overrun Length
08 75 ft / 23 m 5,991 ft / 1,826 m 78.15° 84.90° Asphalt 0 ft / 0 m 0 ft / 0 m
17 150 ft / 46 m 8,021 ft / 2,445 m 168.17° 174.92° Asphalt 0 ft / 0 m 0 ft / 0 m
26 75 ft / 23 m 5,991 ft / 1,826 m 258.16° 264.91° Asphalt 0 ft / 0 m 0 ft / 0 m
35 150 ft / 46 m 8,021 ft / 2,445 m 348.18° 354.93° Asphalt 0 ft / 0 m 0 ft / 0 m

KVUJ

Details ICAO KVUJ
Name Stanly Co
Region United States
Timezone America/New_York (UTC-4.0)
Stats Elevation 609 ft / 186 m (AMSL)
Location 35.417003° -80.150574°
Runways 2
Magnetic Variation 8.263° W

METAR

KVUJ 241610Z AUTO 07007KT 10SM OVC019 24/20 A3022 RMK AO2 T02420200

Decode

TAF

Not found

Destination Runways

ID Width Length Bearing (true) Bearing (mag) Surface Threshold Offset Overrun Length
04L 75 ft / 23 m 3,501 ft / 1,067 m 40.86° 49.12° Asphalt 0 ft / 0 m 0 ft / 0 m
04R 98 ft / 30 m 5,503 ft / 1,677 m 40.85° 49.11° Asphalt 0 ft / 0 m 0 ft / 0 m
22L 98 ft / 30 m 5,503 ft / 1,677 m 220.86° 229.12° Asphalt 0 ft / 0 m 0 ft / 0 m
22R 75 ft / 23 m 3,501 ft / 1,067 m 220.86° 229.12° Asphalt 0 ft / 0 m 0 ft / 0 m

Approach Navaids

Runway Type Ident Frequency Range Bearing (true) Bearing (mag) Slope Elevation
22L Localiser IVUJ 110.55 MHz 18 nm / 33 km 219.02° 227.28° - 609 ft / 186 m (AMSL)
22L Glidescope IVUJ 110.55 MHz 10 nm / 19 km 220.86° 229.12° 3.00° 572 ft / 174 m (AMSL)

Popular Alternatives